TimeEDT,TemperatureF,Dew PointF,Humidity,Sea Level PressureIn,VisibilityMPH,Wind Direction,Wind SpeedMPH,Gust SpeedMPH,PrecipitationIn,Events,Conditions,WindDirDegrees,DateUTC
12:51 AM,43.0,33.1,68,29.61,10.0,NW,10.4,-,N/A,,Overcast,310,2012-11-03 04:51:00
1:51 AM,42.1,33.1,70,29.61,10.0,NW,8.1,-,N/A,,Overcast,320,2012-11-03 05:51:00
2:51 AM,42.1,33.1,70,29.62,10.0,NW,6.9,19.6,N/A,,Overcast,320,2012-11-03 06:51:00
3:51 AM,42.1,33.1,70,29.63,10.0,NW,6.9,-,N/A,,Overcast,320,2012-11-03 07:51:00
4:51 AM,43.0,33.1,68,29.64,10.0,NNW,8.1,-,N/A,,Overcast,330,2012-11-03 08:51:00
5:51 AM,43.0,34.0,71,29.66,10.0,WNW,9.2,-,N/A,,Overcast,300,2012-11-03 09:51:00
6:51 AM,42.1,34.0,73,29.67,10.0,NW,6.9,-,N/A,,Overcast,310,2012-11-03 10:51:00
7:51 AM,43.0,33.1,68,29.69,10.0,WNW,9.2,-,N/A,,Overcast,290,2012-11-03 11:51:00
8:51 AM,43.0,33.1,68,29.70,10.0,NW,10.4,-,N/A,,Partly Cloudy,310,2012-11-03 12:51:00
9:51 AM,44.1,33.1,65,29.72,10.0,WNW,11.5,23.0,N/A,,Partly Cloudy,300,2012-11-03 13:51:00
10:51 AM,46.0,32.0,58,29.73,10.0,NW,13.8,-,N/A,,Clear,320,2012-11-03 14:51:00
11:51 AM,45.0,30.9,58,29.73,10.0,NW,13.8,-,N/A,,Scattered Clouds,320,2012-11-03 15:51:00
12:51 PM,48.0,30.9,52,29.72,10.0,WNW,13.8,25.3,N/A,,Scattered Clouds,300,2012-11-03 16:51:00
1:51 PM,51.1,30.9,46,29.71,10.0,NW,12.7,24.2,N/A,,Overcast,310,2012-11-03 17:51:00
2:51 PM,48.9,30.0,48,29.71,10.0,NNW,11.5,19.6,N/A,,Overcast,330,2012-11-03 18:51:00
3:51 PM,48.0,30.0,50,29.73,10.0,NW,17.3,23.0,N/A,,Mostly Cloudy,320,2012-11-03 19:51:00
4:51 PM,46.0,30.0,54,29.74,10.0,WNW,9.2,18.4,N/A,,Overcast,290,2012-11-03 20:51:00
5:51 PM,45.0,30.0,56,29.76,10.0,NW,11.5,-,N/A,,Overcast,320,2012-11-03 21:51:00
6:51 PM,43.0,30.0,60,29.77,10.0,NW,6.9,-,N/A,,Partly Cloudy,310,2012-11-03 22:51:00
7:51 PM,43.0,30.0,60,29.79,10.0,NW,6.9,-,N/A,,Mostly Cloudy,320,2012-11-03 23:51:00
8:51 PM,42.1,30.0,62,29.79,10.0,NW,10.4,-,N/A,,Overcast,310,2012-11-04 00:51:00
9:51 PM,42.1,30.0,62,29.80,10.0,NW,9.2,18.4,N/A,,Overcast,310,2012-11-04 01:51:00
10:51 PM,42.1,30.9,65,29.80,10.0,NW,11.5,19.6,N/A,,Overcast,310,2012-11-04 02:51:00
11:51 PM,41.0,30.9,67,29.80,10.0,WNW,13.8,20.7,N/A,,Overcast,300,2012-11-04 03:51:00